FW0743 Weather Reports


time (UTC)temp
F
wind
direction
speed
knots
gust
knots
rain 1hr
in
rain 24hr
in
rain mn
in
humidity
%
barometer
mb
20260905190027 70 319 5.2 10.4 0.00 0.00 0.00 72 1014.0
20260905184527 70 310 7.0 11.3 0.00 0.00 0.00 74 1013.9
20260905183026 70 22 3.5 11.3 0.00 0.00 0.00 73 1014.0
20260905181526 70 9 6.1 13.0 0.00 0.00 0.00 74 1014.0
20260905180032 69 319 5.2 11.3 0.00 0.00 0.00 75 1013.8
20260905174513 69 307 5.2 9.6 0.00 0.00 0.00 77 1013.8
20260905173021 69 334 6.1 9.6 0.00 0.00 0.00 76 1014.0
20260905171529 70 39 6.1 11.3 0.00 0.00 0.00 74 1014.0
20260905170009 70 347 5.2 9.6 0.00 0.00 0.00 73 1014.0
20260905164516 71 281 6.1 13.0 0.00 0.00 0.00 71 1014.0
20260905163016 70 344 5.2 8.7 0.00 0.00 0.00 71 1014.0
20260905161505 70 63 4.3 9.6 0.00 0.00 0.00 72 1014.0
20260905160003 69 76 2.6 11.3 0.00 0.00 0.00 75 1014.1
20260905154511 69 302 4.3 8.7 0.00 0.00 0.00 73 1014.2
20260905153018 69 331 3.5 8.7 0.00 0.00 0.00 75 1014.3
20260905151522 69 30 0.9 9.6 0.00 0.00 0.00 75 1014.3
20260905150004 68 345 3.5 8.7 0.00 0.00 0.00 76 1014.3
20260905144516 67 350 3.5 8.7 0.00 0.00 0.00 78 1014.3
20260905143009 67 324 2.6 7.8 0.00 0.00 0.00 78 1014.3
20260905141517 67 44 2.6 7.0 0.00 0.00 0.00 82 1014.1
20260905140024 65 351 2.6 8.7 0.00 0.00 0.00 82 1014.1
20260905134505 65 316 3.5 8.7 0.00 0.00 0.00 83 1014.2
20260905133009 65 117 2.6 7.0 0.00 0.00 0.00 85 1014.1
20260905131523 64 338 2.6 6.1 0.00 0.00 0.00 87 1014.2
20260905130020 62 31 1.7 7.0 0.00 0.00 0.00 90 1014.3
20260905124526 61 24 0.0 6.1 0.00 0.00 0.00 94 1014.4
20260905123007 60 44 0.9 5.2 0.00 0.00 0.00 95 1014.3
20260905121510 59 39 0.9 3.5 0.00 0.00 0.00 98 1014.2
20260905120017 57 352 0.0 0.9 0.00 0.00 0.00 98 1014.1
20260905114523 55 352 0.0 0.0 0.00 0.00 0.00 98 1014.0
20260905113006 54 352 0.0 0.0 0.00 0.00 0.00 98 1014.0
20260905111509 53 352 0.0 0.0 0.00 0.00 0.00 97 1013.7
20260905110014 53 352 0.0 0.0 0.00 0.00 0.00 97 1013.5
20260905104520 53 352 0.0 0.0 0.00 0.00 0.00 97 1013.3
20260905103030 53 352 0.0 0.9 0.00 0.00 0.00 97 1013.1
20260905101508 53 352 0.0 0.0 0.00 0.00 0.00 97 1013.2
20260905100019 54 352 0.0 0.0 0.00 0.00 0.00 97 1013.2
20260905094520 54 352 0.0 0.0 0.00 0.00 0.00 97 1013.2
20260905093024 54 352 0.0 0.0 0.00 0.00 0.00 97 1013.3
20260905091527 54 352 0.0 0.9 0.00 0.00 0.00 97 1013.2
20260905090010 55 352 0.0 0.0 0.00 0.00 0.00 96 1013.1
20260905084513 55 352 0.0 0.0 0.00 0.00 0.00 96 1013.2
20260905083018 55 352 0.0 0.0 0.00 0.00 0.00 96 1013.2
20260905081524 55 352 0.0 0.9 0.00 0.00 0.00 96 1013.3
20260905080030 55 352 0.0 0.0 0.00 0.00 0.00 95 1013.4
20260905074521 56 352 0.0 0.9 0.00 0.00 0.00 95 1013.3
20260905073016 56 352 0.0 0.9 0.00 0.00 0.00 95 1013.4
20260905071523 57 352 0.0 0.9 0.00 0.00 0.00 94 1013.4
20260905070026 57 352 0.0 0.9 0.00 0.00 0.00 94 1013.6
20260905064531 58 352 0.0 1.7 0.00 0.00 0.00 93 1013.5
20260905063014 58 352 0.0 2.6 0.00 0.00 0.00 93 1013.6
20260905061520 58 338 0.0 1.7 0.00 0.00 0.00 93 1013.7
20260905060040 59 324 0.0 0.9 0.00 0.00 0.00 92 1013.6
20260905054557 60 324 0.0 0.0 0.00 0.00 0.00 91 1013.7
20260905053033 60 324 0.0 1.7 0.00 0.00 0.00 90 1013.8
20260905051518 61 355 0.0 1.7 0.00 0.00 0.00 88 1013.9
20260905050003 62 345 0.0 1.7 0.00 0.00 0.00 88 1013.9
20260905044527 62 345 0.0 1.7 0.00 0.00 0.00 88 1014.0
20260905043007 62 345 0.0 1.7 0.00 0.00 0.00 90 1013.9
20260905041519 62 345 0.0 1.7 0.00 0.00 0.00 93 1013.9
20260905040021 61 345 0.0 1.7 0.00 0.00 0.00 95 1013.9
20260905034504 61 345 0.0 0.9 0.00 0.00 0.00 95 1013.8
20260905033008 61 345 0.0 0.9 0.00 0.00 0.00 95 1013.8
20260905031510 61 345 0.0 0.9 0.00 0.00 0.00 94 1013.6
20260905030029 62 345 0.0 0.9 0.00 0.00 0.00 94 1013.6
20260905024525 62 345 0.0 0.0 0.00 0.00 0.00 93 1013.6
20260905023003 62 345 0.0 0.9 0.00 0.00 0.00 93 1013.7
20260905021507 62 345 0.0 1.7 0.00 0.00 0.00 94 1013.8
20260905020014 62 345 0.0 0.9 0.00 0.00 0.00 93 1013.9
20260905014525 62 345 0.0 0.9 0.00 0.00 0.00 91 1013.7
20260905013008 62 345 0.0 0.9 0.00 0.00 0.00 91 1013.7
20260905011508 63 345 0.0 0.0 0.00 0.00 0.00 89 1013.8
20260905010017 64 345 0.0 0.0 0.00 0.00 0.00 90 1013.8
20260905004517 64 345 0.0 0.0 0.00 0.00 0.00 88 1013.8
20260905003025 64 345 0.0 0.0 0.00 0.00 0.00 86 1013.9
20260905001505 65 345 0.0 0.0 0.00 0.00 0.00 84 1013.8
20260905000008 66 345 0.0 0.9 0.00 0.00 0.00 82 1013.7
20260904234514 67 345 0.0 0.0 0.00 0.00 0.00 80 1013.6
20260904233022 67 342 0.0 2.6 0.00 0.00 0.00 78 1013.4
20260904231526 68 355 0.0 2.6 0.00 0.00 0.00 76 1013.3
20260904230015 68 344 0.9 4.3 0.00 0.00 0.00 74 1013.4
20260904224513 69 339 1.7 6.1 0.00 0.00 0.00 72 1013.3
20260904223016 69 360 2.6 6.1 0.00 0.00 0.00 70 1013.4
20260904221533 70 326 2.6 7.8 0.00 0.00 0.00 67 1013.3
20260904220031 70 346 1.7 7.8 0.00 0.00 0.00 66 1013.4
20260904214511 71 336 3.5 8.7 0.00 0.00 0.00 63 1013.5
20260904213016 72 352 5.2 10.4 0.00 0.00 0.00 63 1013.5
20260904211520 73 319 4.3 9.6 0.00 0.00 0.00 61 1013.5
20260904210034 73 311 3.5 7.0 0.00 0.00 0.00 62 1013.7
20260904204532 73 308 5.2 12.2 0.00 0.00 0.00 62 1013.7
20260904203019 73 23 4.3 10.4 0.00 0.00 0.00 61 1013.7
20260904201520 73 323 5.2 10.4 0.00 0.00 0.00 61 1013.9
20260904200045 72 327 6.1 11.3 0.00 0.00 0.00 64 1014.1
20260904194533 73 300 3.5 10.4 0.00 0.00 0.00 65 1014.3
20260904193007 72 331 4.3 11.3 0.00 0.00 0.00 64 1014.3
20260904191514 73 351 4.3 13.0 0.00 0.00 0.00 62 1014.3